Yakima, WA

4:09 AM PDT on June 27, 2017 (GMT -0700)
Yakima Air Term-McAllister

Weather History for KYKM - July, 2013

Change the Weather History Date:

Wednesday, July 3, 2013

  Actual Average Record
Temperature  
Mean Temperature 83 °F 68 °F  
Max Temperature 99 °F 85 °F 107 °F (2015)
Min Temperature 66 °F 51 °F 36 °F (1999)
Degree Days  
Heating Degree Days 0 1  
Month to date heating degree days 0 3  
Since 1 June heating degree days 39 101  
Since 1 July heating degree days 0 3  
Cooling Degree Days 18 4  
Month to date cooling degree days 60 12  
Year to date cooling degree days 228 97  
Since 1 June cooling degree days 176 77  
Growing Degree Days 35 (Base 50)    
Moisture  
Dew Point 47 °F    
Average Humidity 31    
Maximum Humidity 49    
Minimum Humidity 12    
Precipitation  
Precipitation 0.00 in 0.01 in 0.47 in (1998)
Month to date precipitation T 0.03  
Year to date precipitation 4.17 4.32  
Snow  
Snow 0.00 in 0.00 in 0.00 in (2002)
Month to date snowfall 0.0 0.0  
Year to date snowfall 1.1 8.6  
Since 1 July snowfall 0.0 0.0  
Snow Depth 0.00 in    
Sea Level Pressure  
Sea Level Pressure 29.93 in    
Wind  
Wind Speed 8 mph (NNW)    
Max Wind Speed 17 mph    
Max Gust Speed 22 mph    
Visibility 10 miles    
Events      
T = Trace of Precipitation, MM = Missing Value Source: NWS Daily Summary

Daily Weather History Graph

Daily Weather History Graph

Search for Another Location

Airport or City:

Trip Planner

Search our weather history database for the weather conditions in past years. The results will help you decide how hot, cold, wet, or windy it might be!

Date:

Astronomy

Jul. 03, 2013 Rise Set
Actual Time 5:14 AM PDT 8:58 PM PDT
Civil Twilight 4:35 AM PDT 9:37 PM PDT
Nautical Twilight 3:43 AM PDT 10:29 PM PDT
Astronomical Twilight 2:29 AM PDT 11:42 PM PDT
Moon 2:03 AM PDT (7/3) 5:07 PM PDT (7/3)
Length of Visible Light 17h 01m
Length of Day
15h 43m
Waning Crescent, 17% of the Moon is Illuminated
Jul 3
Waning Crescent
Jul 8
New
Jul 15
First Quarter
Jul 22
Full
Jul 29
Last Quarter

Hourly Weather History & Observations

Time (PDT) Temp. Dew Point Humidity Pressure Visibility Wind Dir Wind Speed Gust Speed Precip Events Conditions
12:53 AM 79.0 °F 53.1 °F 40% 29.92 in 10.0 mi NNW 8.1 mph - N/A   Clear
1:53 AM 73.9 °F 54.0 °F 50% 29.93 in 10.0 mi West 5.8 mph - N/A   Clear
2:53 AM 73.9 °F 52.0 °F 46% 29.94 in 10.0 mi North 5.8 mph - N/A   Clear
3:53 AM 71.1 °F 52.0 °F 51% 29.96 in 10.0 mi North 5.8 mph - N/A   Clear
4:53 AM 72.0 °F 51.1 °F 48% 29.98 in 10.0 mi NNW 9.2 mph - N/A   Clear
5:53 AM 72.0 °F 48.9 °F 44% 29.99 in 10.0 mi NNW 4.6 mph - N/A   Clear
6:53 AM 73.9 °F 51.1 °F 45% 30.00 in 10.0 mi NNW 8.1 mph - N/A   Clear
7:53 AM 78.1 °F 52.0 °F 40% 30.00 in 10.0 mi NW 5.8 mph - N/A   Clear
8:53 AM 80.1 °F 52.0 °F 38% 30.00 in 10.0 mi NW 11.5 mph - N/A   Clear
9:53 AM 84.9 °F 51.1 °F 31% 29.98 in 10.0 mi NNW 10.4 mph - N/A   Clear
10:53 AM 88.0 °F 48.9 °F 26% 29.97 in 10.0 mi East 3.5 mph - N/A   Clear
11:53 AM 89.1 °F 46.0 °F 22% 29.96 in 10.0 mi South 6.9 mph - N/A   Clear
12:53 PM 91.9 °F 46.0 °F 21% 29.95 in 10.0 mi Variable 4.6 mph - N/A   Clear
1:53 PM 95.0 °F 44.1 °F 17% 29.93 in 10.0 mi Calm Calm - N/A   Clear
2:53 PM 96.1 °F 43.0 °F 16% 29.91 in 10.0 mi Variable 3.5 mph - N/A   Clear
3:53 PM 97.0 °F 43.0 °F 16% 29.88 in 10.0 mi NNW 6.9 mph - N/A   Clear
4:53 PM 97.0 °F 44.1 °F 16% 29.86 in 10.0 mi West 4.6 mph - N/A   Clear
5:53 PM 97.0 °F 36.0 °F 12% 29.85 in 10.0 mi North 8.1 mph - N/A   Clear
6:53 PM 93.0 °F 34.0 °F 12% 29.85 in 10.0 mi North 12.7 mph - N/A   Clear
7:53 PM 89.1 °F 42.1 °F 19% 29.86 in 10.0 mi North 12.7 mph - N/A   Clear
8:53 PM 84.0 °F 39.9 °F 21% 29.88 in 10.0 mi NNW 10.4 mph - N/A   Clear
9:53 PM 80.1 °F 46.9 °F 31% 29.91 in 10.0 mi NW 11.5 mph - N/A   Clear
10:53 PM 75.0 °F 50.0 °F 41% 29.91 in 10.0 mi NW 15.0 mph 20.7 mph N/A   Clear
11:53 PM 73.9 °F 50.0 °F 43% 29.91 in 10.0 mi NW 12.7 mph 20.7 mph N/A   Clear